| time (UTC) | temp F | wind direction | speed MPH | gust MPH | rain 1hr in | rain 24hr in | rain mn in | humidity % | barometer mb |
| 20260510185007 | 88 | 63 | 5.0 | 13.0 | 0.00 | 0.20 | 0.01 | 76 | 1012.0 |
| 20260510184503 | 88 | 73 | 6.0 | 13.0 | 0.00 | 0.20 | 0.01 | 75 | 1012.0 |
| 20260510184202 | 89 | 101 | 5.0 | 12.0 | 0.00 | 0.20 | 0.01 | 74 | 1012.1 |
| 20260510183704 | 89 | 106 | 6.0 | 12.0 | 0.00 | 0.20 | 0.01 | 72 | 1012.1 |
| 20260510183201 | 91 | 74 | 3.0 | 12.0 | 0.00 | 0.20 | 0.01 | 70 | 1012.1 |
| 20260510183054 | 91 | 96 | 6.0 | 12.0 | 0.00 | 0.20 | 0.01 | 70 | 1012.0 |
| 20260510182702 | 94 | 109 | 2.0 | 7.0 | 0.00 | 0.20 | 0.01 | 65 | 1012.1 |
| 20260510182205 | 95 | 113 | 2.0 | 7.0 | 0.00 | 0.20 | 0.01 | 58 | 1012.1 |
| 20260510181700 | 95 | 198 | 2.0 | 6.0 | 0.00 | 0.20 | 0.01 | 58 | 1012.1 |
| 20260510181546 | 94 | 159 | 1.0 | 6.0 | 0.00 | 0.20 | 0.01 | 59 | 1012.1 |
| 20260510181208 | 95 | 296 | 2.0 | 5.0 | 0.00 | 0.20 | 0.01 | 57 | 1012.2 |
| 20260510180957 | 95 | 53 | 3.0 | 9.0 | 0.00 | 0.20 | 0.01 | 57 | 1012.2 |
| 20260510180201 | 94 | 246 | 2.0 | 9.0 | 0.00 | 0.20 | 0.01 | 60 | 1012.2 |
| 20260510180035 | 94 | 155 | 3.0 | 9.0 | 0.00 | 0.20 | 0.01 | 61 | 1012.4 |
| 20260510175701 | 95 | 130 | 2.0 | 4.0 | 0.00 | 0.20 | 0.01 | 59 | 1012.5 |
| 20260510175201 | 95 | 282 | 2.0 | 9.0 | 0.00 | 0.20 | 0.01 | 59 | 1012.5 |
| 20260510174702 | 95 | 261 | 3.0 | 9.0 | 0.00 | 0.20 | 0.01 | 58 | 1012.5 |
| 20260510174522 | 95 | 213 | 4.0 | 9.0 | 0.00 | 0.20 | 0.01 | 58 | 1012.4 |
| 20260510174201 | 96 | 159 | 2.0 | 9.0 | 0.00 | 0.20 | 0.01 | 59 | 1012.6 |
| 20260510173702 | 96 | 194 | 2.0 | 5.0 | 0.00 | 0.20 | 0.01 | 59 | 1012.6 |
| 20260510173203 | 95 | 271 | 3.0 | 8.0 | 0.00 | 0.20 | 0.01 | 59 | 1012.6 |
| 20260510173010 | 94 | 319 | 1.0 | 8.0 | 0.00 | 0.20 | 0.01 | 62 | 1012.5 |
| 20260510172702 | 94 | 191 | 3.0 | 8.0 | 0.00 | 0.20 | 0.01 | 61 | 1012.7 |
| 20260510172203 | 94 | 220 | 2.0 | 7.0 | 0.00 | 0.20 | 0.01 | 60 | 1012.7 |
| 20260510171703 | 95 | 167 | 2.0 | 7.0 | 0.00 | 0.20 | 0.01 | 60 | 1012.7 |
| 20260510171536 | 94 | 229 | 3.0 | 7.0 | 0.00 | 0.20 | 0.01 | 61 | 1013.0 |
| 20260510171504 | 94 | 136 | 0.0 | 5.0 | 0.00 | 0.20 | 0.01 | 62 | 1012.8 |
| 20260510171237 | 94 | 225 | 2.0 | 6.0 | 0.00 | 0.20 | 0.01 | 59 | 1013.0 |
| 20260510170204 | 93 | 166 | 3.0 | 7.0 | 0.00 | 0.20 | 0.01 | 62 | 1013.0 |
| 20260510170004 | 92 | 225 | 3.0 | 7.0 | 0.00 | 0.20 | 0.01 | 64 | 1012.8 |
| 20260510165703 | 93 | 146 | 2.0 | 6.0 | 0.00 | 0.20 | 0.01 | 67 | 1013.0 |
| 20260510165202 | 93 | 207 | 2.0 | 5.0 | 0.00 | 0.20 | 0.01 | 64 | 1013.0 |
| 20260510164702 | 93 | 259 | 2.0 | 6.0 | 0.00 | 0.20 | 0.01 | 64 | 1013.0 |
| 20260510164502 | 92 | 236 | 1.0 | 6.0 | 0.00 | 0.20 | 0.01 | 63 | 1013.0 |
| 20260510164202 | 93 | 175 | 2.0 | 6.0 | 0.00 | 0.20 | 0.01 | 67 | 1013.1 |
| 20260510163702 | 92 | 229 | 2.0 | 6.0 | 0.00 | 0.20 | 0.01 | 65 | 1013.1 |
| 20260510163203 | 93 | 261 | 2.0 | 6.0 | 0.00 | 0.20 | 0.01 | 64 | 1013.1 |
| 20260510163005 | 93 | 269 | 1.0 | 6.0 | 0.00 | 0.20 | 0.01 | 64 | 1012.9 |
| 20260510162702 | 94 | 224 | 2.0 | 6.0 | 0.00 | 0.20 | 0.01 | 63 | 1013.1 |
| 20260510162204 | 93 | 231 | 2.0 | 7.0 | 0.00 | 0.20 | 0.01 | 65 | 1013.1 |
| 20260510161702 | 92 | 205 | 3.0 | 7.0 | 0.00 | 0.20 | 0.01 | 67 | 1013.1 |
| 20260510161505 | 92 | 141 | 2.0 | 7.0 | 0.00 | 0.20 | 0.01 | 67 | 1013.0 |
| 20260510161203 | 92 | 225 | 3.0 | 7.0 | 0.00 | 0.20 | 0.01 | 66 | 1013.1 |
| 20260510160704 | 92 | 238 | 2.0 | 8.0 | 0.00 | 0.20 | 0.01 | 68 | 1013.1 |
| 20260510160202 | 92 | 250 | 2.0 | 8.0 | 0.00 | 0.20 | 0.01 | 64 | 1013.1 |
| 20260510160058 | 92 | 276 | 2.0 | 7.0 | 0.00 | 0.20 | 0.01 | 66 | 1013.0 |
| 20260510155701 | 93 | 240 | 2.0 | 7.0 | 0.00 | 0.20 | 0.01 | 65 | 1013.3 |
| 20260510155449 | 91 | 235 | 2.0 | 10.0 | 0.00 | 0.20 | 0.01 | 68 | 1013.5 |
| 20260510155404 | 92 | 225 | 1.0 | 6.0 | 0.00 | 0.20 | 0.01 | 66 | 1013.3 |
| 20260510155144 | 92 | 216 | 2.0 | 9.0 | 0.00 | 0.20 | 0.01 | 66 | 1013.3 |
| 20260510154539 | 91 | 215 | 3.0 | 10.0 | 0.00 | 0.20 | 0.01 | 66 | 1013.5 |
| 20260510154537 | 91 | 267 | 0.0 | 8.0 | 0.00 | 0.20 | 0.01 | 69 | 1013.4 |
| 20260510153202 | 90 | 198 | 3.0 | 6.0 | 0.00 | 0.20 | 0.01 | 71 | 1013.5 |
| 20260510153040 | 90 | 119 | 1.0 | 6.0 | 0.00 | 0.20 | 0.01 | 71 | 1013.0 |
| 20260510152701 | 90 | 121 | 3.0 | 9.0 | 0.00 | 0.20 | 0.01 | 69 | 1013.1 |
| 20260510152202 | 90 | 227 | 3.0 | 9.0 | 0.00 | 0.20 | 0.01 | 67 | 1013.1 |
| 20260510151701 | 90 | 230 | 3.0 | 8.0 | 0.00 | 0.20 | 0.01 | 69 | 1013.1 |
| 20260510151506 | 89 | 224 | 2.0 | 8.0 | 0.00 | 0.20 | 0.01 | 70 | 1012.9 |
| 20260510151205 | 89 | 269 | 2.0 | 8.0 | 0.00 | 0.20 | 0.01 | 71 | 1013.1 |
| 20260510150704 | 89 | 256 | 2.0 | 8.0 | 0.00 | 0.20 | 0.01 | 71 | 1013.1 |
| 20260510150202 | 89 | 188 | 2.0 | 8.0 | 0.00 | 0.20 | 0.01 | 72 | 1013.1 |
| 20260510150006 | 88 | 266 | 1.0 | 8.0 | 0.00 | 0.20 | 0.01 | 72 | 1013.0 |
| 20260510145703 | 88 | 222 | 2.0 | 8.0 | 0.00 | 0.20 | 0.01 | 72 | 1013.1 |
| 20260510145202 | 88 | 244 | 3.0 | 6.0 | 0.00 | 0.20 | 0.01 | 73 | 1013.1 |
| 20260510144701 | 87 | 207 | 3.0 | 6.0 | 0.00 | 0.20 | 0.01 | 73 | 1013.1 |
| 20260510144504 | 86 | 182 | 2.0 | 5.0 | 0.00 | 0.20 | 0.01 | 74 | 1012.9 |
| 20260510144203 | 87 | 196 | 2.0 | 6.0 | 0.00 | 0.20 | 0.01 | 75 | 1013.1 |
| 20260510143702 | 86 | 244 | 2.0 | 6.0 | 0.00 | 0.20 | 0.01 | 74 | 1013.1 |
| 20260510143202 | 86 | 216 | 2.0 | 5.0 | 0.00 | 0.20 | 0.01 | 76 | 1013.1 |
| 20260510143046 | 85 | 213 | 0.0 | 5.0 | 0.00 | 0.20 | 0.01 | 76 | 1012.9 |
| 20260510142954 | 85 | 274 | 2.0 | 6.0 | 0.00 | 0.20 | 0.01 | 75 | 1013.0 |
| 20260510142459 | 85 | 218 | 3.0 | 9.0 | 0.00 | 0.20 | 0.01 | 77 | 1013.0 |
| 20260510141954 | 85 | 204 | 3.0 | 9.0 | 0.00 | 0.20 | 0.01 | 76 | 1013.0 |
| 20260510141534 | 85 | 248 | 3.0 | 8.0 | 0.00 | 0.20 | 0.01 | 77 | 1012.8 |
| 20260510141201 | 85 | 239 | 2.0 | 8.0 | 0.00 | 0.20 | 0.01 | 75 | 1012.9 |
| 20260510140701 | 85 | 153 | 2.0 | 8.0 | 0.00 | 0.20 | 0.01 | 77 | 1012.9 |
| 20260510140307 | 84 | 148 | 1.0 | 4.0 | 0.00 | 0.20 | 0.01 | 81 | 1013.1 |
| 20260510140247 | 84 | 159 | 2.0 | 8.0 | 0.00 | 0.20 | 0.01 | 78 | 1012.9 |
| 20260510135201 | 83 | 214 | 1.0 | 4.0 | 0.00 | 0.20 | 0.01 | 82 | 1013.1 |
| 20260510134702 | 82 | 209 | 0.0 | 3.0 | 0.00 | 0.20 | 0.01 | 83 | 1013.1 |
| 20260510134514 | 82 | 198 | 0.0 | 4.0 | 0.00 | 0.20 | 0.01 | 83 | 1012.9 |
| 20260510134454 | 82 | 213 | 1.0 | 4.0 | 0.00 | 0.20 | 0.01 | 83 | 1013.1 |
| 20260510133702 | 81 | 224 | 1.0 | 4.0 | 0.00 | 0.20 | 0.01 | 83 | 1013.1 |
| 20260510133204 | 81 | 236 | 1.0 | 4.0 | 0.00 | 0.20 | 0.01 | 85 | 1013.1 |
| 20260510133005 | 80 | 286 | 0.0 | 4.0 | 0.00 | 0.20 | 0.01 | 86 | 1012.8 |
| 20260510132951 | 80 | 237 | 1.0 | 4.0 | 0.00 | 0.20 | 0.01 | 87 | 1012.9 |
| 20260510132205 | 80 | 266 | 2.0 | 4.0 | 0.00 | 0.20 | 0.01 | 87 | 1012.9 |
| 20260510131701 | 79 | 216 | 2.0 | 4.0 | 0.00 | 0.20 | 0.01 | 89 | 1012.9 |
| 20260510131505 | 79 | 223 | 1.0 | 4.0 | 0.00 | 0.20 | 0.01 | 90 | 1012.5 |
| 20260510131153 | 79 | 153 | 1.0 | 4.0 | 0.00 | 0.20 | 0.01 | 91 | 1012.6 |
| 20260510130655 | 78 | 214 | 1.0 | 4.0 | 0.00 | 0.20 | 0.01 | 92 | 1012.6 |
| 20260510130152 | 78 | 215 | 1.0 | 5.0 | 0.00 | 0.20 | 0.01 | 94 | 1012.6 |
| 20260510130058 | 77 | 211 | 0.0 | 5.0 | 0.00 | 0.20 | 0.01 | 94 | 1012.5 |
| 20260510125653 | 77 | 204 | 2.0 | 5.0 | 0.00 | 0.20 | 0.01 | 94 | 1012.7 |
| 20260510125152 | 77 | 221 | 1.0 | 4.0 | 0.00 | 0.20 | 0.01 | 95 | 1012.7 |
| 20260510124650 | 76 | 219 | 1.0 | 4.0 | 0.00 | 0.20 | 0.01 | 95 | 1012.7 |
| 20260510124541 | 76 | 249 | 0.0 | 4.0 | 0.00 | 0.20 | 0.01 | 95 | 1012.3 |
| 20260510124152 | 76 | 214 | 1.0 | 4.0 | 0.00 | 0.20 | 0.01 | 95 | 1012.5 |
| 20260510123648 | 76 | 131 | 1.0 | 2.0 | 0.00 | 0.20 | 0.01 | 95 | 1012.5 |
| 20260510123149 | 76 | 196 | 1.0 | 4.0 | 0.00 | 0.20 | 0.01 | 95 | 1012.5 |
| 20260510123034 | 75 | 159 | 0.0 | 4.0 | 0.00 | 0.20 | 0.01 | 95 | 1012.1 |
| 20260510122648 | 76 | 157 | 1.0 | 4.0 | 0.00 | 0.20 | 0.01 | 95 | 1012.2 |
| 20260510122148 | 75 | 186 | 1.0 | 2.0 | 0.00 | 0.20 | 0.01 | 95 | 1012.2 |
| 20260510121649 | 75 | 222 | 0.0 | 2.0 | 0.00 | 0.20 | 0.01 | 95 | 1012.2 |
| 20260510121532 | 75 | 146 | 0.0 | 2.0 | 0.00 | 0.20 | 0.01 | 95 | 1011.9 |
| 20260510121150 | 75 | 113 | 0.0 | 1.0 | 0.00 | 0.20 | 0.01 | 95 | 1012.0 |
| 20260510120643 | 75 | 196 | 0.0 | 1.0 | 0.00 | 0.20 | 0.01 | 95 | 1012.0 |
| 20260510120232 | 75 | 126 | 0.0 | 1.0 | 0.00 | 0.20 | 0.01 | 95 | 1012.0 |
| 20260510120215 | 75 | 128 | 0.0 | 1.0 | 0.00 | 0.20 | 0.01 | 95 | 1012.0 |
| 20260510120156 | 74 | 128 | 0.0 | 1.0 | 0.00 | 0.20 | 0.01 | 95 | 1011.9 |
| 20260510115141 | 74 | 217 | 0.0 | 1.0 | 0.00 | 0.20 | 0.01 | 95 | 1012.0 |
| 20260510114641 | 74 | 217 | 0.0 | 1.0 | 0.00 | 0.20 | 0.01 | 95 | 1012.0 |
| 20260510114505 | 74 | 217 | 0.0 | 1.0 | 0.00 | 0.20 | 0.01 | 95 | 1011.6 |
| 20260510114139 | 74 | 217 | 0.0 | 1.0 | 0.00 | 0.20 | 0.01 | 95 | 1011.7 |
| 20260510113636 | 74 | 242 | 0.0 | 1.0 | 0.00 | 0.20 | 0.01 | 95 | 1011.7 |
| 20260510113425 | 74 | 223 | 0.0 | 1.0 | 0.01 | 0.20 | 0.01 | 95 | 1011.7 |
| 20260510113049 | 73 | 223 | 0.0 | 1.0 | 0.01 | 0.20 | 0.01 | 95 | 1011.4 |
| 20260510112632 | 74 | 223 | 0.0 | 2.0 | 0.01 | 0.20 | 0.01 | 95 | 1011.5 |
| 20260510112131 | 74 | 207 | 0.0 | 2.0 | 0.01 | 0.20 | 0.01 | 95 | 1011.5 |
| 20260510111632 | 74 | 215 | 0.0 | 2.0 | 0.01 | 0.20 | 0.01 | 95 | 1011.5 |
| 20260510111536 | 73 | 215 | 0.0 | 2.0 | 0.01 | 0.20 | 0.01 | 95 | 1011.3 |
| 20260510111136 | 74 | 219 | 0.0 | 3.0 | 0.01 | 0.20 | 0.01 | 95 | 1011.5 |
| 20260510110630 | 74 | 213 | 0.0 | 3.0 | 0.01 | 0.20 | 0.01 | 95 | 1011.5 |
| 20260510110131 | 74 | 192 | 0.0 | 1.0 | 0.01 | 0.20 | 0.01 | 95 | 1011.5 |
| 20260510110018 | 73 | 171 | 0.0 | 1.0 | 0.01 | 0.20 | 0.01 | 95 | 1011.1 |
| 20260510105629 | 74 | 180 | 0.0 | 1.0 | 0.01 | 0.20 | 0.01 | 95 | 1011.3 |
| 20260510105130 | 74 | 131 | 0.0 | 0.0 | 0.01 | 0.20 | 0.01 | 95 | 1011.3 |
| 20260510104928 | 74 | 131 | 0.0 | 0.0 | 0.01 | 0.20 | 0.01 | 95 | 1011.3 |
| 20260510104501 | 73 | 131 | 0.0 | 0.0 | 0.01 | 0.20 | 0.01 | 95 | 1010.9 |
| 20260510104130 | 74 | 131 | 0.0 | 0.0 | 0.01 | 0.20 | 0.01 | 95 | 1011.0 |
| 20260510103629 | 74 | 131 | 0.0 | 0.0 | 0.01 | 0.20 | 0.01 | 95 | 1011.0 |
| 20260510103128 | 74 | 131 | 0.0 | 0.0 | 0.00 | 0.19 | 0.00 | 95 | 1011.0 |
| 20260510103045 | 73 | 131 | 0.0 | 0.0 | 0.00 | 0.19 | 0.00 | 95 | 1010.8 |
| 20260510102631 | 74 | 131 | 0.0 | 1.0 | 0.00 | 0.19 | 0.00 | 95 | 1010.9 |
| 20260510102133 | 74 | 131 | 0.0 | 1.0 | 0.00 | 0.19 | 0.00 | 95 | 1010.9 |
| 20260510101632 | 74 | 131 | 0.0 | 1.0 | 0.00 | 0.19 | 0.00 | 95 | 1010.9 |
| 20260510101532 | 73 | 131 | 0.0 | 1.0 | 0.00 | 0.19 | 0.00 | 95 | 1010.5 |
| 20260510101131 | 74 | 131 | 0.0 | 1.0 | 0.00 | 0.19 | 0.00 | 95 | 1010.6 |
| 20260510100632 | 74 | 131 | 0.0 | 0.0 | 0.00 | 0.19 | 0.00 | 95 | 1010.6 |
| 20260510100135 | 74 | 129 | 0.0 | 0.0 | 0.00 | 0.19 | 0.00 | 95 | 1010.6 |
| 20260510100033 | 73 | 129 | 0.0 | 0.0 | 0.00 | 0.19 | 0.00 | 95 | 1010.4 |
| 20260510095631 | 74 | 129 | 0.0 | 0.0 | 0.00 | 0.19 | 0.00 | 95 | 1010.6 |
| 20260510095132 | 74 | 129 | 0.0 | 0.0 | 0.00 | 0.19 | 0.00 | 95 | 1010.6 |
| 20260510094631 | 74 | 129 | 0.0 | 1.0 | 0.00 | 0.19 | 0.00 | 95 | 1010.6 |
| 20260510094518 | 73 | 129 | 0.0 | 1.0 | 0.00 | 0.19 | 0.00 | 95 | 1010.3 |
| 20260510094135 | 74 | 129 | 0.0 | 1.0 | 0.00 | 0.19 | 0.00 | 95 | 1010.5 |
| 20260510093630 | 74 | 129 | 0.0 | 1.0 | 0.00 | 0.19 | 0.00 | 95 | 1010.5 |
| 20260510093129 | 74 | 129 | 0.0 | 1.0 | 0.00 | 0.19 | 0.00 | 95 | 1010.5 |
| 20260510093005 | 73 | 129 | 0.0 | 1.0 | 0.00 | 0.19 | 0.00 | 95 | 1010.4 |
| 20260510092631 | 74 | 129 | 0.0 | 2.0 | 0.00 | 0.19 | 0.00 | 95 | 1010.5 |
| 20260510092454 | 74 | 194 | 0.0 | 2.0 | 0.00 | 0.19 | 0.00 | 95 | 1010.5 |
| 20260510092153 | 74 | 129 | 0.0 | 2.0 | 0.00 | 0.19 | 0.00 | 95 | 1010.5 |
| 20260510091505 | 73 | 194 | 0.0 | 2.0 | 0.00 | 0.19 | 0.00 | 95 | 1010.3 |
| 20260510091107 | 74 | 222 | 0.0 | 2.0 | 0.00 | 0.19 | 0.00 | 95 | 1010.5 |
| 20260510090607 | 74 | 226 | 0.0 | 2.0 | 0.00 | 0.19 | 0.00 | 95 | 1010.5 |
| 20260510090108 | 74 | 219 | 0.0 | 2.0 | 0.00 | 0.19 | 0.00 | 94 | 1010.5 |
| 20260510090002 | 73 | 219 | 0.0 | 2.0 | 0.00 | 0.19 | 0.00 | 94 | 1010.3 |
| 20260510085605 | 74 | 214 | 0.0 | 2.0 | 0.00 | 0.19 | 0.00 | 94 | 1010.4 |
| 20260510085105 | 74 | 218 | 0.0 | 2.0 | 0.00 | 0.19 | 0.00 | 95 | 1010.4 |
| 20260510084603 | 74 | 255 | 0.0 | 1.0 | 0.00 | 0.19 | 0.00 | 95 | 1010.4 |
| 20260510084557 | 74 | 255 | 0.0 | 1.0 | 0.00 | 0.19 | 0.00 | 95 | 1010.3 |
| 20260510084103 | 74 | 277 | 0.0 | 1.0 | 0.00 | 0.19 | 0.00 | 95 | 1010.3 |
| 20260510083601 | 74 | 277 | 0.0 | 0.0 | 0.00 | 0.19 | 0.00 | 95 | 1010.3 |
| 20260510083102 | 74 | 277 | 0.0 | 0.0 | 0.00 | 0.19 | 0.00 | 94 | 1010.3 |
| 20260510083037 | 73 | 277 | 0.0 | 0.0 | 0.00 | 0.19 | 0.00 | 94 | 1009.9 |
| 20260510082603 | 74 | 277 | 0.0 | 0.0 | 0.00 | 0.19 | 0.00 | 94 | 1010.0 |
| 20260510082103 | 74 | 277 | 0.0 | 0.0 | 0.00 | 0.19 | 0.00 | 94 | 1010.0 |
| 20260510081602 | 74 | 277 | 0.0 | 1.0 | 0.00 | 0.19 | 0.00 | 94 | 1010.0 |
| 20260510081533 | 74 | 277 | 0.0 | 0.0 | 0.00 | 0.19 | 0.00 | 94 | 1010.1 |
| 20260510081110 | 74 | 277 | 0.0 | 1.0 | 0.00 | 0.19 | 0.00 | 94 | 1010.2 |
| 20260510080601 | 74 | 277 | 0.0 | 1.0 | 0.00 | 0.19 | 0.00 | 94 | 1010.2 |
| 20260510080009 | 74 | 277 | 0.0 | 1.0 | 0.00 | 0.19 | 0.00 | 94 | 1009.9 |
| 20260510075604 | 74 | 277 | 0.0 | 1.0 | 0.00 | 0.19 | 0.00 | 94 | 1010.0 |
| 20260510075104 | 74 | 277 | 0.0 | 0.0 | 0.00 | 0.19 | 0.00 | 94 | 1010.0 |
| 20260510074602 | 74 | 277 | 0.0 | 0.0 | 0.00 | 0.19 | 0.00 | 94 | 1010.0 |
| 20260510074503 | 74 | 277 | 0.0 | 0.0 | 0.00 | 0.19 | 0.00 | 94 | 1009.9 |
| 20260510074102 | 74 | 277 | 0.0 | 0.0 | 0.00 | 0.19 | 0.00 | 94 | 1010.0 |
| 20260510073603 | 74 | 277 | 0.0 | 0.0 | 0.00 | 0.19 | 0.00 | 94 | 1010.0 |
| 20260510073102 | 74 | 277 | 0.0 | 0.0 | 0.00 | 0.19 | 0.00 | 94 | 1010.0 |
| 20260510073004 | 74 | 277 | 0.0 | 0.0 | 0.00 | 0.19 | 0.00 | 94 | 1010.0 |
| 20260510072606 | 74 | 277 | 0.0 | 1.0 | 0.00 | 0.19 | 0.00 | 94 | 1010.1 |
| 20260510072102 | 74 | 277 | 0.0 | 1.0 | 0.00 | 0.19 | 0.00 | 94 | 1010.1 |
| 20260510071602 | 74 | 277 | 0.0 | 1.0 | 0.00 | 0.19 | 0.00 | 94 | 1010.1 |
| 20260510071559 | 74 | 277 | 0.0 | 1.0 | 0.00 | 0.19 | 0.00 | 94 | 1010.0 |
| 20260510071103 | 74 | 277 | 0.0 | 2.0 | 0.00 | 0.19 | 0.00 | 94 | 1010.1 |
| 20260510070601 | 74 | 277 | 1.0 | 2.0 | 0.00 | 0.19 | 0.00 | 94 | 1010.1 |
| 20260510070034 | 74 | 296 | 0.0 | 2.0 | 0.00 | 0.19 | 0.00 | 94 | 1010.3 |
| 20260510065601 | 74 | 297 | 0.0 | 0.0 | 0.00 | 0.19 | 0.00 | 94 | 1010.5 |
| 20260510065101 | 74 | 283 | 0.0 | 0.0 | 0.00 | 0.19 | 0.00 | 94 | 1010.5 |
| 20260510064550 | 74 | 283 | 0.0 | 0.0 | 0.00 | 0.19 | 0.00 | 94 | 1010.6 |
| 20260510064530 | 74 | 283 | 0.0 | 0.0 | 0.00 | 0.19 | 0.00 | 94 | 1010.4 |
| 20260510064341 | 74 | 267 | 0.0 | 0.0 | 0.00 | 0.19 | 0.00 | 94 | 1010.6 |
| 20260510063543 | 74 | 267 | 0.0 | 0.0 | 0.00 | 0.19 | 0.00 | 94 | 1010.6 |
| 20260510063032 | 74 | 266 | 0.0 | 0.0 | 0.00 | 0.19 | 0.00 | 94 | 1010.5 |
| 20260510063004 | 74 | 266 | 0.0 | 0.0 | 0.00 | 0.19 | 0.00 | 94 | 1010.4 |
| 20260510062828 | 74 | 282 | 0.0 | 0.0 | 0.00 | 0.19 | 0.00 | 94 | 1010.5 |
| 20260510062030 | 74 | 282 | 0.0 | 1.0 | 0.00 | 0.19 | 0.00 | 94 | 1010.5 |
| 20260510061531 | 75 | 282 | 0.0 | 2.0 | 0.00 | 0.19 | 0.00 | 94 | 1010.5 |
| 20260510061505 | 74 | 282 | 0.0 | 2.0 | 0.00 | 0.19 | 0.00 | 94 | 1010.4 |
| 20260510061029 | 75 | 296 | 1.0 | 2.0 | 0.00 | 0.19 | 0.00 | 94 | 1010.5 |
| 20260510060529 | 75 | 314 | 1.0 | 3.0 | 0.00 | 0.19 | 0.00 | 94 | 1010.5 |
| 20260510060029 | 75 | 333 | 1.0 | 3.0 | 0.00 | 0.19 | 0.00 | 94 | 1010.8 |
| 20260510060006 | 74 | 281 | 1.0 | 3.0 | 0.00 | 0.19 | 0.00 | 94 | 1010.7 |
| 20260510055529 | 75 | 294 | 1.0 | 3.0 | 0.00 | 0.19 | 0.00 | 94 | 1010.8 |
| 20260510055030 | 75 | 304 | 0.0 | 1.0 | 0.00 | 0.19 | 0.00 | 94 | 1010.8 |
| 20260510054530 | 75 | 301 | 0.0 | 1.0 | 0.00 | 0.19 | 0.00 | 93 | 1010.9 |
| 20260510054505 | 74 | 301 | 0.0 | 1.0 | 0.00 | 0.19 | 0.00 | 93 | 1010.8 |
| 20260510054029 | 75 | 301 | 0.0 | 0.0 | 0.00 | 0.19 | 0.00 | 93 | 1010.9 |
| 20260510053531 | 75 | 301 | 0.0 | 0.0 | 0.00 | 0.19 | 0.00 | 93 | 1010.9 |
| 20260510053030 | 75 | 301 | 0.0 | 0.0 | 0.00 | 0.19 | 0.00 | 93 | 1011.0 |
| 20260510053004 | 74 | 301 | 0.0 | 0.0 | 0.00 | 0.19 | 0.00 | 93 | 1010.9 |
| 20260510052535 | 75 | 301 | 0.0 | 0.0 | 0.00 | 0.19 | 0.00 | 93 | 1011.0 |
| 20260510052034 | 75 | 301 | 0.0 | 0.0 | 0.00 | 0.19 | 0.00 | 93 | 1011.0 |
| 20260510051532 | 75 | 301 | 0.0 | 0.0 | 0.00 | 0.19 | 0.00 | 93 | 1011.0 |
| 20260510051504 | 75 | 301 | 0.0 | 0.0 | 0.00 | 0.19 | 0.00 | 93 | 1010.9 |
| 20260510051324 | 75 | 301 | 0.0 | 0.0 | 0.00 | 0.19 | 0.00 | 93 | 1011.0 |
| 20260510050530 | 76 | 301 | 0.0 | 0.0 | 0.00 | 0.19 | 0.00 | 93 | 1011.0 |
| 20260510050030 | 76 | 301 | 0.0 | 0.0 | 0.00 | 0.19 | 0.00 | 93 | 1011.1 |
| 20260510050006 | 75 | 301 | 0.0 | 0.0 | 0.00 | 0.19 | 0.00 | 93 | 1010.9 |
| 20260510045530 | 76 | 301 | 0.0 | 0.0 | 0.00 | 0.19 | 0.00 | 93 | 1011.1 |
| 20260510045030 | 76 | 301 | 0.0 | 0.0 | 0.00 | 0.19 | 0.00 | 93 | 1011.1 |
| 20260510044557 | 75 | 301 | 0.0 | 0.0 | 0.00 | 0.19 | 0.00 | 93 | 1011.0 |
| 20260510044529 | 76 | 301 | 0.0 | 0.0 | 0.00 | 0.19 | 0.00 | 93 | 1011.1 |
| 20260510044031 | 76 | 301 | 0.0 | 0.0 | 0.00 | 0.19 | 0.00 | 93 | 1011.1 |
| 20260510043530 | 76 | 301 | 0.0 | 0.0 | 0.00 | 0.19 | 0.00 | 93 | 1011.1 |
| 20260510043045 | 75 | 301 | 0.0 | 1.0 | 0.00 | 0.19 | 0.00 | 93 | 1011.1 |
| 20260510043032 | 76 | 301 | 0.0 | 1.0 | 0.00 | 0.19 | 0.00 | 93 | 1011.2 |
| 20260510042531 | 76 | 301 | 0.0 | 1.0 | 0.00 | 0.19 | 0.00 | 93 | 1011.2 |
| 20260510042032 | 76 | 302 | 0.0 | 0.0 | 0.00 | 0.19 | 0.00 | 93 | 1011.2 |
| 20260510041554 | 75 | 302 | 0.0 | 0.0 | 0.00 | 0.19 | 0.00 | 93 | 1011.3 |
| 20260510041532 | 76 | 302 | 0.0 | 0.0 | 0.00 | 0.19 | 0.00 | 93 | 1011.4 |
| 20260510041031 | 76 | 302 | 0.0 | 0.0 | 0.00 | 0.19 | 0.00 | 93 | 1011.4 |
| 20260510040530 | 76 | 302 | 0.0 | 0.0 | 0.00 | 0.19 | 0.00 | 93 | 1011.4 |
| 20260510040035 | 75 | 302 | 0.0 | 0.0 | 0.00 | 0.19 | 0.19 | 93 | 1011.2 |
| 20260510040030 | 76 | 302 | 0.0 | 0.0 | 0.00 | 0.19 | 0.00 | 93 | 1011.3 |
| 20260510035529 | 76 | 302 | 0.0 | 0.0 | 0.00 | 0.19 | 0.19 | 93 | 1011.3 |
| 20260510035028 | 76 | 302 | 0.0 | 0.0 | 0.00 | 0.19 | 0.19 | 93 | 1011.3 |
| 20260510034525 | 76 | 302 | 0.0 | 0.0 | 0.00 | 0.19 | 0.19 | 93 | 1011.3 |
| 20260510034520 | 76 | 302 | 0.0 | 0.0 | 0.00 | 0.19 | 0.19 | 93 | 1011.2 |
| 20260510034025 | 76 | 302 | 0.0 | 1.0 | 0.00 | 0.19 | 0.19 | 93 | 1011.3 |
| 20260510033524 | 76 | 302 | 0.0 | 1.0 | 0.00 | 0.19 | 0.19 | 93 | 1011.3 |
| 20260510033025 | 76 | 341 | 0.0 | 1.0 | 0.00 | 0.19 | 0.19 | 93 | 1011.0 |
| 20260510033006 | 76 | 341 | 0.0 | 1.0 | 0.00 | 0.19 | 0.19 | 93 | 1010.9 |
| 20260510032522 | 76 | 14 | 0.0 | 1.0 | 0.00 | 0.19 | 0.19 | 93 | 1011.0 |
| 20260510032015 | 76 | 19 | 0.0 | 0.0 | 0.00 | 0.19 | 0.19 | 93 | 1011.0 |
| 20260510031545 | 76 | 19 | 0.0 | 1.0 | 0.00 | 0.19 | 0.19 | 93 | 1010.8 |
| 20260510031510 | 76 | 19 | 0.0 | 1.0 | 0.00 | 0.19 | 0.19 | 93 | 1011.0 |
| 20260510031005 | 76 | 19 | 0.0 | 1.0 | 0.00 | 0.19 | 0.19 | 93 | 1011.0 |
| 20260510030502 | 76 | 19 | 0.0 | 0.0 | 0.00 | 0.19 | 0.19 | 93 | 1011.0 |
| 20260510030032 | 76 | 19 | 0.0 | 0.0 | 0.00 | 0.19 | 0.19 | 93 | 1010.5 |
| 20260510030002 | 76 | 19 | 0.0 | 0.0 | 0.00 | 0.19 | 0.19 | 92 | 1010.6 |
| 20260510025501 | 76 | 19 | 0.0 | 1.0 | 0.00 | 0.19 | 0.19 | 92 | 1010.6 |
| 20260510025002 | 76 | 19 | 0.0 | 1.0 | 0.00 | 0.19 | 0.19 | 92 | 1010.6 |
| 20260510024522 | 76 | 19 | 0.0 | 1.0 | 0.00 | 0.19 | 0.19 | 92 | 1010.8 |
| 20260510024502 | 76 | 19 | 0.0 | 1.0 | 0.00 | 0.19 | 0.19 | 92 | 1010.9 |
| 20260510024001 | 76 | 19 | 0.0 | 1.0 | 0.00 | 0.19 | 0.19 | 92 | 1010.9 |
| 20260510023502 | 76 | 18 | 0.0 | 0.0 | 0.00 | 0.19 | 0.19 | 92 | 1010.9 |
| 20260510023009 | 76 | 18 | 0.0 | 0.0 | 0.00 | 0.19 | 0.19 | 92 | 1010.3 |
| 20260510023004 | 76 | 18 | 0.0 | 0.0 | 0.00 | 0.19 | 0.19 | 92 | 1010.4 |
| 20260510022503 | 76 | 19 | 0.0 | 1.0 | 0.00 | 0.19 | 0.19 | 92 | 1010.4 |
| 20260510022001 | 76 | 19 | 0.0 | 2.0 | 0.03 | 0.19 | 0.19 | 92 | 1010.4 |
| 20260510021542 | 76 | 18 | 0.0 | 2.0 | 0.09 | 0.19 | 0.19 | 92 | 1010.3 |
| 20260510021502 | 76 | 18 | 0.0 | 2.0 | 0.12 | 0.19 | 0.19 | 92 | 1010.4 |
| 20260510021254 | 77 | 85 | 0.0 | 2.0 | 0.19 | 0.19 | 0.19 | 92 | 1010.4 |
| 20260510020501 | 77 | 85 | 0.0 | 2.0 | 0.19 | 0.19 | 0.19 | 92 | 1010.4 |
| 20260510020023 | 76 | 303 | 0.0 | 3.0 | 0.19 | 0.19 | 0.19 | 91 | 1009.9 |
| 20260510020003 | 77 | 303 | 0.0 | 3.0 | 0.19 | 0.19 | 0.19 | 91 | 1010.0 |
| 20260510015751 | 77 | 299 | 0.0 | 3.0 | 0.19 | 0.19 | 0.19 | 91 | 1010.0 |
| 20260510015001 | 77 | 348 | 1.0 | 4.0 | 0.19 | 0.19 | 0.19 | 91 | 1010.0 |
| 20260510014745 | 77 | 26 | 1.0 | 4.0 | 0.19 | 0.19 | 0.19 | 90 | 1010.1 |
| 20260510014256 | 77 | 333 | 1.0 | 3.0 | 0.19 | 0.19 | 0.19 | 90 | 1010.1 |
| 20260510013504 | 78 | 23 | 2.0 | 6.0 | 0.19 | 0.19 | 0.19 | 90 | 1010.1 |
| 20260510013108 | 78 | 342 | 1.0 | 7.0 | 0.19 | 0.19 | 0.19 | 89 | 1010.0 |
| 20260510013005 | 78 | 346 | 2.0 | 7.0 | 0.19 | 0.19 | 0.19 | 89 | 1010.5 |
| 20260510012503 | 79 | 81 | 2.0 | 7.0 | 0.19 | 0.19 | 0.19 | 87 | 1010.5 |
| 20260510012001 | 80 | 82 | 2.0 | 8.0 | 0.16 | 0.16 | 0.15 | 85 | 1010.5 |
| 20260510011540 | 81 | 252 | 3.0 | 10.0 | 0.09 | 0.09 | 0.09 | 82 | 1009.5 |
| 20260510011503 | 82 | 265 | 4.0 | 10.0 | 0.07 | 0.07 | 0.03 | 81 | 1009.6 |
| 20260510011004 | 83 | 295 | 5.0 | 14.0 | 0.00 | 0.00 | 0.00 | 79 | 1009.6 |
| 20260510010504 | 84 | 335 | 4.0 | 14.0 | 0.00 | 0.00 | 0.00 | 77 | 1009.6 |
| 20260510010041 | 84 | 17 | 4.0 | 12.0 | 0.00 | 0.00 | 0.00 | 78 | 1009.1 |
| 20260510010005 | 84 | 10 | 2.0 | 9.0 | 0.00 | 0.00 | 0.00 | 78 | 1009.2 |
| 20260510005802 | 84 | 217 | 2.0 | 5.0 | 0.00 | 0.00 | 0.00 | 80 | 1009.2 |
| 20260510005257 | 84 | 267 | 2.0 | 6.0 | 0.00 | 0.00 | 0.00 | 81 | 1009.2 |
| 20260510004509 | 83 | 319 | 2.0 | 10.0 | 0.00 | 0.00 | 0.00 | 81 | 1008.2 |
| 20260510004503 | 83 | 304 | 3.0 | 10.0 | 0.00 | 0.00 | 0.00 | 81 | 1008.3 |
| 20260510004003 | 83 | 292 | 3.0 | 10.0 | 0.00 | 0.00 | 0.00 | 82 | 1008.3 |
| 20260510003502 | 84 | 145 | 4.0 | 9.0 | 0.00 | 0.00 | 0.00 | 82 | 1008.3 |
| 20260510003055 | 83 | 134 | 6.0 | 9.0 | 0.00 | 0.00 | 0.00 | 82 | 1008.1 |
| 20260510003001 | 84 | 103 | 5.0 | 10.0 | 0.00 | 0.00 | 0.00 | 81 | 1008.2 |
| 20260510002501 | 84 | 128 | 4.0 | 10.0 | 0.00 | 0.00 | 0.00 | 81 | 1008.2 |
| 20260510002001 | 84 | 126 | 4.0 | 9.0 | 0.00 | 0.00 | 0.00 | 81 | 1008.2 |
| 20260510001532 | 83 | 111 | 4.0 | 8.0 | 0.00 | 0.00 | 0.00 | 80 | 1007.9 |
| 20260510001502 | 84 | 119 | 4.0 | 8.0 | 0.00 | 0.00 | 0.00 | 80 | 1008.0 |
| 20260510001002 | 84 | 115 | 5.0 | 7.0 | 0.00 | 0.00 | 0.00 | 80 | 1008.0 |
| 20260510000503 | 84 | 123 | 5.0 | 9.0 | 0.00 | 0.00 | 0.00 | 80 | 1008.0 |
| 20260510000032 | 84 | 129 | 5.0 | 9.0 | 0.00 | 0.00 | 0.00 | 79 | 1007.8 |
| 20260510000002 | 84 | 126 | 5.0 | 9.0 | 0.00 | 0.00 | 0.00 | 79 | 1007.9 |
| 20260509235501 | 84 | 124 | 5.0 | 8.0 | 0.00 | 0.00 | 0.00 | 80 | 1007.9 |
| 20260509235003 | 85 | 138 | 4.0 | 8.0 | 0.00 | 0.00 | 0.00 | 80 | 1007.9 |
| 20260509234508 | 84 | 130 | 4.0 | 8.0 | 0.00 | 0.00 | 0.00 | 79 | 1007.7 |
| 20260509234502 | 85 | 126 | 4.0 | 11.0 | 0.00 | 0.00 | 0.00 | 79 | 1007.8 |
| 20260509234002 | 85 | 121 | 6.0 | 11.0 | 0.00 | 0.00 | 0.00 | 79 | 1007.8 |
| 20260509233503 | 85 | 98 | 7.0 | 11.0 | 0.00 | 0.00 | 0.00 | 79 | 1007.8 |
| 20260509233009 | 85 | 120 | 7.0 | 11.0 | 0.00 | 0.00 | 0.00 | 79 | 1007.6 |
| 20260509233004 | 85 | 120 | 7.0 | 11.0 | 0.00 | 0.00 | 0.00 | 79 | 1007.7 |
| 20260509232756 | 85 | 123 | 6.0 | 11.0 | 0.00 | 0.00 | 0.00 | 80 | 1007.7 |
| 20260509232001 | 85 | 103 | 7.0 | 11.0 | 0.00 | 0.00 | 0.00 | 80 | 1007.7 |
| 20260509231501 | 85 | 111 | 6.0 | 11.0 | 0.00 | 0.00 | 0.00 | 80 | 1007.6 |
| 20260509231450 | 86 | 128 | 6.0 | 11.0 | 0.00 | 0.00 | 0.00 | 80 | 1007.7 |
| 20260509230948 | 86 | 138 | 5.0 | 11.0 | 0.00 | 0.00 | 0.00 | 80 | 1007.7 |
| 20260509230434 | 86 | 123 | 7.0 | 11.0 | 0.00 | 0.00 | 0.00 | 79 | 1007.7 |
| 20260509230053 | 86 | 101 | 6.0 | 11.0 | 0.00 | 0.00 | 0.00 | 80 | 1007.6 |
| 20260509225931 | 86 | 119 | 8.0 | 11.0 | 0.00 | 0.00 | 0.00 | 80 | 1007.6 |
| 20260509225431 | 86 | 117 | 7.0 | 11.0 | 0.00 | 0.00 | 0.00 | 79 | 1007.6 |
| 20260509224932 | 87 | 107 | 8.0 | 18.0 | 0.00 | 0.00 | 0.00 | 78 | 1007.6 |
| 20260509224543 | 86 | 117 | 9.0 | 18.0 | 0.00 | 0.00 | 0.00 | 78 | 1007.5 |
| 20260509224431 | 87 | 101 | 9.0 | 18.0 | 0.00 | 0.00 | 0.00 | 78 | 1007.6 |
| 20260509223930 | 87 | 119 | 9.0 | 14.0 | 0.00 | 0.00 | 0.00 | 77 | 1007.6 |
| 20260509223432 | 87 | 99 | 9.0 | 14.0 | 0.00 | 0.00 | 0.00 | 77 | 1007.6 |
| 20260509223032 | 87 | 121 | 9.0 | 14.0 | 0.00 | 0.00 | 0.00 | 76 | 1007.3 |
| 20260509222930 | 87 | 103 | 8.0 | 14.0 | 0.00 | 0.00 | 0.00 | 76 | 1007.5 |
| 20260509222430 | 88 | 124 | 7.0 | 13.0 | 0.00 | 0.00 | 0.00 | 77 | 1007.5 |
| 20260509221929 | 88 | 95 | 8.0 | 13.0 | 0.00 | 0.00 | 0.00 | 77 | 1007.5 |
| 20260509221531 | 88 | 131 | 7.0 | 13.0 | 0.00 | 0.00 | 0.00 | 77 | 1007.5 |
| 20260509221430 | 88 | 134 | 8.0 | 13.0 | 0.00 | 0.00 | 0.00 | 77 | 1007.6 |
| 20260509220930 | 88 | 127 | 8.0 | 13.0 | 0.00 | 0.00 | 0.00 | 76 | 1007.6 |
| 20260509220732 | 88 | 88 | 8.0 | 14.0 | 0.00 | 0.00 | 0.00 | 77 | 1007.6 |
| 20260509220019 | 88 | 118 | 10.0 | 13.0 | 0.00 | 0.00 | 0.00 | 76 | 1007.5 |
| 20260509215930 | 88 | 105 | 8.0 | 14.0 | 0.00 | 0.00 | 0.00 | 77 | 1007.6 |
| 20260509215431 | 88 | 120 | 9.0 | 14.0 | 0.00 | 0.00 | 0.00 | 76 | 1007.6 |
| 20260509214929 | 88 | 119 | 9.0 | 14.0 | 0.00 | 0.00 | 0.00 | 76 | 1007.6 |
| 20260509214505 | 88 | 126 | 7.0 | 15.0 | 0.00 | 0.00 | 0.00 | 76 | 1007.6 |
| 20260509214430 | 89 | 144 | 8.0 | 15.0 | 0.00 | 0.00 | 0.00 | 76 | 1007.7 |
| 20260509213931 | 89 | 96 | 8.0 | 15.0 | 0.00 | 0.00 | 0.00 | 76 | 1007.7 |
| 20260509213430 | 89 | 109 | 9.0 | 17.0 | 0.00 | 0.00 | 0.00 | 77 | 1007.7 |
| 20260509213005 | 88 | 117 | 8.0 | 17.0 | 0.00 | 0.00 | 0.00 | 77 | 1007.4 |
| 20260509212930 | 89 | 86 | 10.0 | 17.0 | 0.00 | 0.00 | 0.00 | 77 | 1007.5 |
| 20260509212430 | 89 | 116 | 9.0 | 14.0 | 0.00 | 0.00 | 0.00 | 76 | 1007.5 |
| 20260509212226 | 89 | 110 | 9.0 | 14.0 | 0.00 | 0.00 | 0.00 | 74 | 1007.5 |
| 20260509211504 | 89 | 102 | 8.0 | 14.0 | 0.00 | 0.00 | 0.00 | 75 | 1007.5 |
| 20260509211429 | 89 | 94 | 8.0 | 14.0 | 0.00 | 0.00 | 0.00 | 75 | 1007.6 |
| 20260509210929 | 89 | 127 | 7.0 | 14.0 | 0.00 | 0.00 | 0.00 | 74 | 1007.6 |
| 20260509210431 | 89 | 130 | 8.0 | 14.0 | 0.00 | 0.00 | 0.00 | 75 | 1007.6 |
| 20260509210005 | 89 | 94 | 8.0 | 14.0 | 0.00 | 0.00 | 0.00 | 73 | 1007.7 |
| 20260509205930 | 89 | 107 | 7.0 | 14.0 | 0.00 | 0.00 | 0.00 | 74 | 1007.8 |
| 20260509205727 | 89 | 108 | 6.0 | 14.0 | 0.00 | 0.00 | 0.00 | 73 | 1007.8 |
| 20260509204929 | 90 | 119 | 6.0 | 11.0 | 0.00 | 0.00 | 0.00 | 73 | 1007.8 |
| 20260509204722 | 90 | 93 | 6.0 | 11.0 | 0.00 | 0.00 | 0.00 | 72 | 1007.8 |
| 20260509204644 | 89 | 109 | 7.0 | 11.0 | 0.00 | 0.00 | 0.00 | 73 | 1007.7 |
| 20260509203930 | 90 | 126 | 5.0 | 11.0 | 0.00 | 0.00 | 0.00 | 72 | 1007.8 |
| 20260509203430 | 91 | 150 | 4.0 | 11.0 | 0.00 | 0.00 | 0.00 | 72 | 1007.8 |
| 20260509203045 | 91 | 134 | 4.0 | 11.0 | 0.00 | 0.00 | 0.00 | 70 | 1007.9 |
| 20260509202930 | 92 | 137 | 2.0 | 11.0 | 0.00 | 0.00 | 0.00 | 69 | 1008.0 |
| 20260509202727 | 92 | 74 | 1.0 | 3.0 | 0.00 | 0.00 | 0.00 | 66 | 1008.0 |
| 20260509201929 | 91 | 128 | 2.0 | 5.0 | 0.00 | 0.00 | 0.00 | 71 | 1008.0 |
| 20260509201531 | 90 | 130 | 1.0 | 5.0 | 0.00 | 0.00 | 0.00 | 70 | 1008.1 |
| 20260509201430 | 91 | 126 | 3.0 | 10.0 | 0.00 | 0.00 | 0.00 | 71 | 1008.2 |
| 20260509200931 | 90 | 87 | 4.0 | 10.0 | 0.00 | 0.00 | 0.00 | 72 | 1008.2 |
| 20260509200432 | 92 | 139 | 3.0 | 9.0 | 0.00 | 0.00 | 0.00 | 69 | 1008.2 |
| 20260509200035 | 91 | 213 | 2.0 | 14.0 | 0.00 | 0.00 | 0.00 | 70 | 1008.2 |
| 20260509195928 | 91 | 216 | 5.0 | 14.0 | 0.00 | 0.00 | 0.00 | 70 | 1008.4 |
| 20260509195421 | 90 | 109 | 6.0 | 14.0 | 0.00 | 0.00 | 0.00 | 70 | 1008.4 |
| 20260509194922 | 91 | 117 | 5.0 | 9.0 | 0.00 | 0.00 | 0.00 | 71 | 1008.4 |
| 20260509194531 | 90 | 128 | 5.0 | 11.0 | 0.00 | 0.00 | 0.00 | 68 | 1008.3 |
| 20260509194422 | 91 | 105 | 3.0 | 11.0 | 0.00 | 0.00 | 0.00 | 69 | 1008.4 |
| 20260509193919 | 92 | 101 | 4.0 | 16.0 | 0.00 | 0.00 | 0.00 | 66 | 1008.4 |
| 20260509193515 | 95 | 139 | 4.0 | 10.0 | 0.00 | 0.00 | 0.00 | 50 | 1008.4 |
| 20260509193454 | 94 | 121 | 4.0 | 16.0 | 0.00 | 0.00 | 0.00 | 57 | 1008.4 |
| 20260509193139 | 94 | 146 | 6.0 | 16.0 | 0.00 | 0.00 | 0.00 | 55 | 1008.3 |
| 20260509192424 | 94 | 146 | 4.0 | 10.0 | 0.00 | 0.00 | 0.00 | 53 | 1008.4 |
| 20260509191924 | 97 | 119 | 2.0 | 10.0 | 0.00 | 0.00 | 0.00 | 47 | 1008.4 |
| 20260509191532 | 96 | 261 | 2.0 | 8.0 | 0.00 | 0.00 | 0.00 | 48 | 1008.4 |
| 20260509191421 | 97 | 236 | 3.0 | 9.0 | 0.00 | 0.00 | 0.00 | 46 | 1008.5 |
| 20260509191205 | 96 | 231 | 3.0 | 9.0 | 0.00 | 0.00 | 0.00 | 47 | 1008.5 |
| 20260509190419 | 96 | 250 | 2.0 | 11.0 | 0.00 | 0.00 | 0.00 | 48 | 1008.5 |
| 20260509190042 | 96 | 215 | 3.0 | 9.0 | 0.00 | 0.00 | 0.00 | 49 | 1008.7 |
| 20260509185920 | 96 | 224 | 3.0 | 11.0 | 0.00 | 0.00 | 0.00 | 49 | 1008.8 |